Regional Weather Roundup
Issued by NWS

Home | Current Version | Previous Version | Graphics & Text | Print | Product List | Glossary On
Versions: 1 2 3 4 5 6 7 8 9 10 11 12 13 14 15 16 17 18 19 20 21 22 23 24 25 26 27 28 29 30 31 32 33 34 35 36 37 38 39 40 41 42 43 44 45 46 47 48 49 50
000
ASUS43 KMPX 272201
RWRMN
WEATHER ROUNDUP FOR MINNESOTA
NATIONAL WEATHER SERVICE TWIN CITIES/CHANHASSEN MN
400 PM CST MON FEB 27 2017


NOTE: "FAIR" INDICATES FEW OR NO CLOUDS BELOW 12,000 FEET WITH NO
SIGNIFICANT WEATHER AND/OR OBSTRUCTIONS TO VISIBILITY. N/A MEANS
CURRENT SKY AND/OR WEATHER CONDITIONS ARE NOT AVAILABLE.

MNZ060>063-068>070-272300-
   Twin Cities Metro

CITY           SKY/WX    TMP DP  RH WIND       PRES   REMARKS
TWIN CITIES    CLOUDY    43  20  39 S10       29.90F
ST PAUL        CLOUDY    42  24  49 SE12      29.91F
CRYSTAL        CLOUDY    44  17  33 S12G21    29.87F
BLAINE         PTSUNNY   46  19  34 S12       29.88F
LAKEVILLE      CLOUDY    39  25  56 S8        29.90F
EDEN PRAIRIE   CLOUDY    45  20  36 S13       29.88F
SOUTH ST PAUL  CLOUDY    41  22  46 S7G16     29.91F
LAKE ELMO      FAIR      41  23  48 S10       29.92S
$$
MNZ001>005-007-008-013>017-022>024-027-028-272300-
   Northwest Minnesota

CITY           SKY/WX    TMP DP  RH WIND       PRES   REMARKS
BEMIDJI        MOSUNNY   31  17  56 E6        29.82F WCI  25
HALLOCK        PTSUNNY   19  14  79 N10       29.91S WCI   8
ROSEAU         FLURRIES  25  18  74 NW8       29.88S WCI  16
WARROAD        MOSUNNY   27  18  69 W7        29.88S WCI  19
THIEF RVR FALL   N/A     25  17  72 MISG        N/A
CROOKSTON      MOSUNNY   27  18  69 N9        29.87F WCI  17
FOSSTON        CLOUDY    30  21  69 N10       29.83F WCI  21
DETROIT LAKES  CLOUDY    32  27  80 SE8       29.79F WCI  25
MOORHEAD       MOSUNNY   34  23  64 E7        29.81S WCI  28
PARK RAPIDS    CLOUDY    34  20  56 SE7       29.80F WCI  28
MAHNOMEN       MOCLDY    31  22  69 NE10      29.81S WCI  23
$$
MNZ006-009>011-018-025>026-272300-
   North Central Minnesota

CITY           SKY/WX    TMP DP  RH WIND       PRES   REMARKS
BAUDETTE       CLOUDY    29  11  47 S5        29.86S WCI  24
FLAG ISLAND    PTSUNNY   25  12  58 SW10G16   29.86S WCI  15
INTL FALLS     CLOUDY    28   8  43 SW6       29.87F WCI  22
WASKISH        MOSUNNY   27  12  54 NW6       29.86S WCI  20
BIG FORK       SUNNY     30  16  55 MISG      29.85S
LONGVILLE      CLOUDY    34  23  64 SE6       29.83F WCI  29
GRAND RAPIDS   CLOUDY    33  21  61 S10       29.87S WCI  25
CRANE LAKE     SUNNY     28  10  47 CALM      29.90S
ORR            SUNNY     28  12  50 CALM      29.85S
COOK           SUNNY     30  18  59 SE5       29.87S WCI  25
WALKER         CLOUDY    31  19  62 E5        29.82F WCI  26
$$
MNZ012-019>021-037-272300-
   Northeast Minnesota

CITY           SKY/WX    TMP DP  RH WIND       PRES   REMARKS
DULUTH         MOSUNNY   32  23  69 E7        29.87F WCI  26
ELY            SUNNY     30  18  59 CALM      29.88S
HIBBING        PTSUNNY   31  20  63 SE8       29.85F WCI  23
EVELETH        CLOUDY    34  18  51 S7        29.87S WCI  28
DULUTH HARBOR  SUNNY     30  27  86 CALM      29.93F
TWO HARBORS    PTSUNNY   34  25  69 CALM      29.89S
SILVER BAY     SUNNY     30  21  69 CALM      29.90S
GRAND MARAIS     N/A     28  21  75 S3        29.97F
G MARAIS ARPRT SUNNY     23  16  74 SE7       29.90S WCI  15
$$
MNZ029>031-032-039>041-046>048-054>057-064-272300-
   West Central Minnesota

CITY           SKY/WX    TMP DP  RH WIND       PRES   REMARKS
FERGUS FALLS   CLOUDY    36  27  69 E6        29.82R
WHEATON        CLOUDY    39  27  60 E14       29.77F
MORRIS         CLOUDY    41  28  60 SE14      29.75S
ALEXANDRIA     CLOUDY    38  23  55 SE16      29.78F
ELBOW LAKE     FAIR      36  27  69 E10       29.78R HAZE
WADENA         CLOUDY    34  25  69 E9        29.79F WCI  26
GLENWOOD       MOSUNNY   39  25  56 SE10      29.79F
APPLETON       CLOUDY    46  21  36 S10G18    29.76S
BENSON         MOSUNNY   46  25  42 S9        29.79F
ORTONVILLE     CLOUDY    46  21  36 S14G20    29.74S
MADISON        MOSUNNY   48  25  40 S18G24      N/A
WILLMAR        FAIR      46  30  53 SE12      29.81F
$$
MNZ033>034-036-042>043-049>051-058-059-272300-
   Central Minnesota

CITY           SKY/WX    TMP DP  RH WIND       PRES   REMARKS
ST CLOUD       CLOUDY    41  24  51 S13       29.84F
SAUK CENTRE    MOCLDY    38  26  62 SE13      29.80F
PAYNESVILLE    CLOUDY    42  26  51 SE10      29.81F
AITKIN         CLOUDY    37  21  52 SE7       29.83F
PINE RIVER     CLOUDY    34  27  75 SE8       29.86F WCI  27
BRAINERD       CLOUDY    37  24  59 S6        29.83F
STAPLES        CLOUDY    36  25  64 E6        29.81F
LONG PRAIRIE   FAIR      36  27  69 E8        29.80F
LITTLE FALLS   CLOUDY    39  23  52 SE10      29.83S
LITCHFIELD     MOSUNNY   45  28  53 SE8       29.83F
BUFFALO        PTSUNNY   42  21  42 S8        29.87F
MAPLE LAKE     PTSUNNY   43  28  55 S7        29.86F
HUTCHINSON     SUNNY     43  31  62 SE10G16   29.85F
$$
MNZ037-044-045-052-053-272300-
   East Central Minnesota

CITY           SKY/WX    TMP DP  RH WIND       PRES   REMARKS
PRINCETON      CLOUDY    45  19  36 S9        29.86S
MORA           SUNNY     43  21  42 S7        29.87F
CAMBRIDGE      CLOUDY    46  25  42 S10G18    29.85F
RUSH CITY      CLOUDY    44  19  36 S9        29.87F
MOOSE LAKE     CLOUDY    39  21  48 S5        29.85F
HINCKLEY       FAIR      43  21  42 S13G20    29.86F
CLOQUET        PTSUNNY   36  21  55 E3        29.87S
MCGREGOR       CLOUDY    36  25  64 CALM      29.86F
$$
MNZ071>073-080-081-089-090-097-098-272300-
   Southwest Minnesota

CITY           SKY/WX    TMP DP  RH WIND       PRES   REMARKS
MONTEVIDEO     MOSUNNY   46  25  42 SW14      29.79S
GRANITE FALLS  SUNNY     48  28  45 S18G26    29.81S
CANBY          MOSUNNY   48  21  34 S14       29.77S
MARSHALL       SUNNY     47  22  37 S15G22    29.78S
REDWOOD FALLS  SUNNY     48  23  37 S15       29.81F
OLIVIA         SUNNY     46  27  46 S15       29.81S
PIPESTONE      SUNNY     45  23  42 S17G25    29.76S
WINDOM         SUNNY     45  21  39 S12       29.82F
WORTHINGTON    SUNNY     42  26  53 SE14      29.80F
JACKSON        PTSUNNY   39  27  60 S10       29.84F
TRACY          SUNNY     46  26  44 S15       29.79F
SLAYTON        SUNNY     43  29  57 S18G24    29.79S
$$
MNZ065>067-074>077-082>085-091>093-272300-
   South Central Minnesota

CITY           SKY/WX    TMP DP  RH WIND       PRES   REMARKS
MANKATO          N/A     38  28  67 SE13      29.88F
NEW ULM        MOSUNNY   41  27  56 S14       29.85F
ST JAMES       MOSUNNY   39  28  65 SE9       29.86F
FAIRMONT       CLOUDY    37  28  70 SE9       29.87
GLENCOE        CLOUDY    44  30  58 S9        29.85F
FARIBAULT      CLOUDY    39  25  56 S8        29.91F
OWATONNA       CLOUDY    39  25  56 S10       29.91F
WASECA         CLOUDY    36  27  69 SE12      29.91F
ALBERT LEA     MOSUNNY   37  28  70 SE10      29.90F
$$
MNZ078>079-086>088-094>096-272300-
   Southeast Minnesota

CITY           SKY/WX    TMP DP  RH WIND       PRES   REMARKS
ROCHESTER      SUNNY     38  30  73 S10       29.94S
RED WING       CLOUDY    41  19  42 S5        29.93F
STANTON        CLOUDY    40  26  59 S8        29.91F
WINONA         SUNNY     46  23  39 S3        29.96F
AUSTIN         MOSUNNY   39  28  65 SE6       29.92F
PRESTON        SUNNY     41  30  65 S8        29.95R
$$
ABBREVIATIONS USED IN REMARKS
   TC - TEMPERATURES IN CELSIUS
  WCI - WIND CHILL INDEX
   HX - HEAT INDEX
  VSB - VISIBILITY
$$



USA.gov is the U.S. government's official web portal to all federal, state and local government web resources and services.